GW0206 Weather Reports


time (UTC)temp
C
wind
direction
speed
KPH
gust
KPH
rain 1hr
cm
rain 24hr
cm
rain mn
cm
humidity
%
barometer
mb
20260510093511 9 211 1.6 8.0 0.00 1.24 0.00 94 1011.6
20260510093014 9 196 3.2 8.0 0.00 1.27 0.00 94 1011.5
20260510092507 9 205 3.2 8.0 0.00 1.27 0.00 95 1011.3
20260510092012 9 205 3.2 8.0 0.00 1.27 0.00 95 1011.1
20260510091511 9 219 3.2 9.7 0.00 1.27 0.00 95 1011.2
20260510091006 10 221 3.2 14.5 0.00 1.27 0.00 95 1011.1
20260510090504 10 206 1.6 14.5 0.00 1.30 0.00 95 1011.1
20260510090020 10 194 6.4 12.9 0.00 1.30 0.00 95 1011.0
20260510085505 10 216 6.4 12.9 0.00 1.32 0.00 96 1011.0
20260510085007 10 223 4.8 12.9 0.00 1.32 0.00 96 1010.9
20260510084519 10 170 3.2 14.5 0.00 1.32 0.00 96 1010.8
20260510084010 10 172 6.4 14.5 0.00 1.32 0.00 96 1010.6
20260510083508 10 182 4.8 14.5 0.00 1.37 0.00 96 1010.4
20260510083024 10 194 3.2 12.9 0.00 1.37 0.00 96 1010.6
20260510082508 10 188 3.2 12.9 0.00 1.40 0.00 96 1010.5
20260510082006 10 185 3.2 9.7 0.00 1.42 0.00 96 1010.5
20260510081518 10 152 3.2 11.3 0.00 1.42 0.00 96 1010.5
20260510081003 10 165 3.2 11.3 0.00 1.45 0.00 96 1010.4
20260510080503 10 178 1.6 9.7 0.00 1.45 0.00 96 1010.2
20260510080011 10 161 3.2 9.7 0.00 1.47 0.00 96 1010.1
20260510075503 10 180 1.6 6.4 0.00 1.47 0.00 97 1010.1
20260510075004 10 178 0.0 3.2 0.00 1.47 0.00 96 1010.0
20260510074514 10 178 0.0 4.8 0.00 1.52 0.00 96 1009.9
20260510074005 10 178 1.6 4.8 0.00 1.52 0.00 96 1009.9
20260510073502 10 129 0.0 6.4 0.00 1.55 0.00 96 1009.7
20260510073004 10 118 1.6 6.4 0.00 1.57 0.00 96 1009.7
20260510072503 10 113 1.6 4.8 0.00 1.57 0.00 96 1009.8
20260510072005 10 113 1.6 6.4 0.00 1.60 0.00 96 1009.7
20260510071503 10 115 3.2 6.4 0.00 1.60 0.00 96 1009.6
20260510071002 10 153 3.2 6.4 0.00 1.60 0.00 95 1009.6
20260510070503 10 92 1.6 6.4 0.00 1.65 0.00 95 1009.6
20260510070003 10 151 0.0 4.8 0.00 1.65 0.00 95 1009.5
20260510065504 10 116 0.0 3.2 0.00 1.68 0.00 95 1009.5
20260510065006 10 116 1.6 4.8 0.00 1.70 0.00 95 1009.6
20260510064527 10 116 1.6 4.8 0.00 1.73 0.00 95 1009.6
20260510064003 11 83 0.0 3.2 0.00 1.78 0.00 95 1009.6
20260510063504 11 63 1.6 4.8 0.00 1.78 0.00 95 1009.5
20260510063020 11 90 1.6 8.0 0.00 1.80 0.00 95 1009.4
20260510062502 11 69 1.6 11.3 0.00 1.85 0.00 95 1009.3
20260510062003 11 93 1.6 11.3 0.00 1.93 0.00 95 1009.2
20260510061514 11 87 1.6 8.0 0.00 1.96 0.00 95 1009.1
20260510061003 11 98 3.2 14.5 0.00 2.01 0.00 96 1009.1
20260510060522 11 61 6.4 14.5 0.00 2.06 0.00 95 1009.1
20260510060010 11 284 1.6 6.4 0.00 2.06 0.00 96 1009.0
20260510055503 11 292 0.0 4.8 0.00 2.08 0.00 96 1008.9
20260510055003 11 341 0.0 4.8 0.00 2.11 0.00 95 1008.9
20260510054508 11 331 0.0 4.8 0.00 2.13 0.00 95 1008.9
20260510054003 11 338 1.6 6.4 0.00 2.16 0.00 95 1009.0
20260510053503 11 26 3.2 11.3 0.00 2.18 0.00 95 1009.0
20260510053017 11 17 3.2 17.7 0.00 2.21 0.00 96 1009.1
20260510052504 11 42 8.0 27.4 0.00 2.21 0.00 96 1009.1
20260510052008 11 53 11.3 27.4 0.00 2.21 0.00 96 1009.3
20260510051522 11 27 4.8 16.1 0.00 2.21 0.00 96 1009.3
20260510051003 11 28 6.4 14.5 0.00 2.21 0.00 96 1009.3
20260510050504 11 28 4.8 8.0 0.00 2.21 0.00 96 1009.2
20260510050004 11 348 3.2 6.4 0.00 2.21 0.00 95 1009.0
20260510045504 11 276 3.2 6.4 0.00 2.21 0.00 95 1008.9
20260510045007 11 282 1.6 6.4 0.00 2.24 0.00 95 1008.9
20260510044515 11 308 1.6 4.8 0.00 2.24 0.00 96 1008.9
20260510044004 11 11 0.0 6.4 0.00 2.24 0.00 95 1008.9
20260510043504 11 360 1.6 6.4 0.00 2.24 0.00 95 1008.8
20260510043011 11 346 0.0 6.4 0.13 2.24 0.00 96 1008.9
20260510042504 11 350 1.6 6.4 0.28 2.24 0.00 95 1008.9
20260510042010 11 242 0.0 4.8 0.33 2.24 0.00 95 1009.1
20260510041515 11 242 1.6 4.8 0.33 2.26 0.00 95 1009.2
20260510041004 11 301 0.0 4.8 0.33 2.26 0.00 95 1009.0
20260510040507 11 334 1.6 4.8 0.36 2.26 0.00 95 1008.7
20260510040023 11 355 0.0 3.2 0.36 2.29 0.00 95 1008.7
20260510035504 12 355 0.0 4.8 0.36 2.29 2.29 95 1008.7
20260510035008 12 360 1.6 4.8 0.38 2.29 2.29 95 1008.7
20260510034513 12 32 3.2 6.4 0.58 2.29 2.29 95 1008.8
20260510034004 12 347 3.2 14.5 0.58 2.29 2.29 95 1008.6
20260510033508 12 56 8.0 14.5 0.58 2.29 2.29 95 1009.1
20260510033020 12 76 1.6 9.7 0.46 2.18 2.16 95 1008.9
20260510032503 12 117 1.6 9.7 0.30 2.03 2.01 95 1009.0
20260510032006 12 106 4.8 8.0 0.25 1.98 1.96 95 1008.5
20260510031516 12 68 4.8 9.7 0.25 1.98 1.96 95 1008.6
20260510031006 12 44 6.4 9.7 0.25 1.98 1.96 95 1008.7
20260510030513 12 40 3.2 17.7 0.23 1.96 1.93 95 1008.6
20260510030022 12 88 8.0 27.4 0.23 1.96 1.93 95 1008.9
20260510025508 12 27 12.9 27.4 0.23 1.98 1.93 95 1009.1
20260510025007 12 56 12.9 20.9 0.20 1.98 1.91 95 1009.4
20260510024513 12 118 9.7 14.5 0.00 1.78 1.70 95 1009.3
20260510024005 12 24 1.6 6.4 0.00 1.78 1.70 95 1008.2
20260510023508 12 30 1.6 8.0 0.00 1.78 1.70 95 1008.1
20260510023030 12 321 3.2 8.0 0.00 1.78 1.70 95 1007.9
20260510022504 12 18 3.2 8.0 0.00 1.78 1.70 95 1007.9
20260510022004 12 324 1.6 6.4 0.00 1.78 1.70 95 1007.9
20260510021519 12 5 0.0 6.4 0.00 1.80 1.70 95 1008.0
20260510021004 12 360 1.6 6.4 0.00 1.80 1.70 95 1007.9
20260510020507 12 360 3.2 8.0 0.00 1.80 1.70 94 1008.0
20260510020020 12 5 3.2 8.0 0.00 1.80 1.70 94 1008.1
20260510015507 12 5 3.2 8.0 0.00 1.80 1.70 94 1008.1
20260510015003 12 5 3.2 8.0 0.00 1.80 1.70 94 1008.1
20260510014519 12 5 1.6 6.4 0.03 1.80 1.70 94 1008.1
20260510014006 12 355 0.0 6.4 0.03 1.83 1.70 94 1008.0
20260510013508 12 337 1.6 8.0 0.05 1.83 1.70 94 1007.8
20260510013017 12 13 4.8 8.0 0.08 1.83 1.70 94 1007.8
20260510012508 12 28 3.2 8.0 0.13 1.83 1.70 94 1007.8
20260510012010 12 24 1.6 6.4 0.18 1.83 1.70 94 1007.7
20260510011528 12 27 1.6 8.0 0.30 1.83 1.70 94 1007.5
20260510011006 12 309 3.2 9.7 0.43 1.83 1.70 94 1007.3
20260510010504 12 311 3.2 9.7 0.51 1.83 1.70 93 1007.5
20260510010016 12 34 1.6 9.7 0.66 1.85 1.70 93 1007.8
20260510005504 12 47 4.8 9.7 0.66 1.85 1.70 93 1007.9
20260510005007 12 43 1.6 8.0 0.66 1.85 1.70 93 1007.8
20260510004522 12 59 3.2 9.7 0.64 1.83 1.68 92 1007.8
20260510004009 12 144 0.0 12.9 0.64 1.83 1.68 92 1007.7
20260510003508 12 131 3.2 12.9 0.61 1.83 1.65 91 1007.8
20260510003022 12 130 3.2 20.9 0.58 1.80 1.63 91 1007.8
20260510002510 12 115 6.4 24.1 0.53 1.75 1.57 90 1007.9
20260510002012 13 120 8.0 25.7 0.48 1.70 1.52 88 1008.1
20260510001519 13 123 6.4 25.7 0.36 1.57 1.40 86 1008.0
20260510001008 14 158 8.0 19.3 0.23 1.45 1.27 83 1007.4
20260510000511 15 159 6.4 22.5 0.15 1.37 1.19 78 1007.3
20260510000016 17 156 9.7 22.5 0.00 1.24 1.04 69 1007.1
20260509235506 18 167 3.2 27.4 0.00 1.24 1.04 67 1006.6
20260509235012 18 19 11.3 27.4 0.00 1.24 1.04 65 1005.8
20260509234529 18 48 14.5 27.4 0.00 1.24 1.04 62 1005.7
20260509234006 18 64 11.3 24.1 0.00 1.24 1.04 63 1005.5
20260509233506 18 60 12.9 30.6 0.00 1.24 1.04 62 1005.5
20260509233022 18 34 16.1 30.6 0.00 1.24 1.04 62 1005.4
20260509232508 18 71 9.7 30.6 0.00 1.24 1.04 62 1005.4
20260509232012 18 39 14.5 29.0 0.00 1.24 1.04 62 1005.4
20260509231524 19 119 12.9 29.0 0.00 1.24 1.04 61 1005.2
20260509231007 19 65 14.5 41.8 0.00 1.24 1.04 60 1005.2
20260509230506 19 44 17.7 41.8 0.00 1.24 1.04 59 1005.1
20260509230022 20 59 17.7 37.0 0.00 1.24 1.04 59 1005.0
20260509225512 20 63 19.3 37.0 0.00 1.24 1.04 58 1005.0
20260509225015 20 28 20.9 37.0 0.00 1.24 1.04 58 1005.1
20260509224530 20 61 19.3 30.6 0.00 1.24 1.04 57 1005.0
20260509224009 20 44 16.1 30.6 0.00 1.24 1.04 58 1005.0
20260509223515 20 86 14.5 37.0 0.00 1.24 1.04 60 1004.9
20260509223020 20 31 20.9 38.6 0.00 1.24 1.04 58 1005.0
20260509222502 20 5 19.3 38.6 0.00 1.24 1.04 59 1005.0
20260509222002 20 33 16.1 30.6 0.00 1.24 1.04 58 1005.0
20260509221503 21 5 16.1 33.8 0.00 1.24 1.04 58 1005.1
20260509221002 20 44 11.3 33.8 0.00 1.24 1.04 59 1005.0
20260509220505 20 60 12.9 27.4 0.00 1.24 1.04 59 1005.0
20260509220004 20 28 12.9 41.8 0.00 1.24 1.04 58 1005.1
20260509215502 20 101 19.3 41.8 0.00 1.24 1.04 57 1005.0
20260509215002 20 36 19.3 38.6 0.00 1.24 1.04 57 1005.0
20260509214504 20 37 12.9 29.0 0.00 1.24 1.04 59 1004.9
20260509214002 20 348 19.3 29.0 0.00 1.24 1.04 57 1004.9
20260509213503 21 49 16.1 35.4 0.00 1.24 1.04 57 1005.0
20260509213005 21 65 20.9 35.4 0.00 1.24 1.04 58 1005.1
20260509212501 21 89 17.7 35.4 0.00 1.24 1.04 58 1005.1
20260509212002 20 61 9.7 37.0 0.00 1.24 1.04 61 1005.4
20260509211502 20 36 20.9 37.0 0.00 1.24 1.04 59 1005.5
20260509211003 20 40 20.9 29.0 0.00 1.24 1.04 59 1005.8
20260509210503 20 37 17.7 32.2 0.00 1.24 1.04 58 1005.8
20260509210004 20 53 16.1 35.4 0.00 1.24 1.04 60 1005.9
20260509205503 20 107 19.3 35.4 0.00 1.24 1.04 59 1005.9
20260509205002 20 14 19.3 32.2 0.00 1.24 1.04 58 1005.9
20260509204504 20 22 20.9 33.8 0.00 1.24 1.04 58 1006.0
20260509204002 20 23 16.1 33.8 0.00 1.24 1.04 57 1006.0
20260509203503 21 55 17.7 30.6 0.00 1.24 1.04 59 1006.0
20260509203005 20 63 14.5 27.4 0.00 1.24 1.04 60 1006.1
20260509202503 20 72 9.7 27.4 0.00 1.24 1.04 60 1006.1
20260509202004 20 71 11.3 29.0 0.00 1.24 1.04 60 1006.1
20260509201505 20 92 16.1 40.2 0.00 1.24 1.04 61 1006.2
20260509201003 20 91 22.5 40.2 0.00 1.27 1.04 58 1006.2
20260509200501 20 111 14.5 30.6 0.00 1.27 1.04 62 1006.2
20260509200003 20 60 14.5 30.6 0.00 1.27 1.04 64 1006.4
20260509195504 20 38 19.3 29.0 0.00 1.30 1.04 66 1006.5
20260509195001 18 43 9.7 30.6 0.00 1.30 1.04 69 1006.6
20260509194502 18 71 17.7 30.6 0.00 1.30 1.04 65 1006.7
20260509194003 18 32 14.5 27.4 0.00 1.30 1.04 64 1006.7
20260509193502 18 62 14.5 25.7 0.00 1.30 1.04 63 1006.8
20260509193007 19 55 14.5 27.4 0.00 1.30 1.04 64 1006.9
20260509192502 19 54 17.7 27.4 0.00 1.30 1.04 64 1006.9
20260509192004 19 67 9.7 27.4 0.00 1.30 1.04 68 1006.9
20260509191504 19 34 16.1 35.4 0.00 1.30 1.04 65 1006.9
20260509191003 19 59 22.5 35.4 0.00 1.30 1.04 67 1007.0
20260509190503 18 32 12.9 30.6 0.00 1.30 1.04 69 1007.0
20260509190009 18 26 16.1 27.4 0.00 1.30 1.04 69 1007.1
20260509185502 18 53 17.7 35.4 0.00 1.30 1.04 68 1007.1
20260509185008 18 49 12.9 35.4 0.00 1.30 1.04 65 1007.1
20260509184507 19 103 16.1 35.4 0.00 1.30 1.04 67 1007.1
20260509184002 18 53 22.5 35.4 0.00 1.32 1.04 68 1007.2
20260509183504 19 109 14.5 32.2 0.00 1.32 1.04 64 1007.1
20260509183007 19 57 16.1 27.4 0.00 1.32 1.04 65 1007.0
20260509182504 19 54 14.5 30.6 0.00 1.32 1.04 68 1007.1
20260509182004 18 80 20.9 30.6 0.00 1.32 1.04 67 1007.1
20260509181504 18 54 12.9 29.0 0.00 1.32 1.04 71 1007.1
20260509181003 18 46 14.5 30.6 0.00 1.32 1.04 67 1007.2
20260509180507 18 67 12.9 30.6 0.00 1.32 1.04 68 1007.1
20260509180007 18 88 17.7 30.6 0.00 1.32 1.04 71 1007.2
20260509175503 18 88 14.5 35.4 0.00 1.32 1.04 69 1007.2
20260509175003 17 45 17.7 35.4 0.00 1.32 1.04 70 1007.3
20260509174507 17 79 17.7 32.2 0.00 1.37 1.04 69 1007.3
20260509174003 17 68 17.7 32.2 0.00 1.37 1.04 71 1007.2
20260509173502 17 18 16.1 29.0 0.00 1.37 1.04 70 1007.2
20260509173005 17 51 16.1 30.6 0.00 1.37 1.04 72 1007.2
20260509172505 17 91 16.1 30.6 0.00 1.37 1.04 74 1007.2
20260509172004 17 65 14.5 27.4 0.00 1.37 1.04 70 1007.3
20260509171506 17 42 11.3 25.7 0.00 1.37 1.04 73 1007.3
20260509171002 16 67 12.9 30.6 0.00 1.37 1.04 74 1007.5
20260509170507 16 78 19.3 30.6 0.00 1.37 1.04 74 1007.6
20260509170008 16 109 16.1 30.6 0.00 1.37 1.04 76 1007.7
20260509165502 16 62 16.1 32.2 0.00 1.37 1.04 72 1007.7
20260509165003 16 80 16.1 33.8 0.00 1.37 1.04 74 1007.7
20260509164509 16 65 17.7 33.8 0.00 1.37 1.04 78 1007.6
20260509164006 16 67 12.9 27.4 0.00 1.37 1.04 77 1007.6
20260509163504 16 115 14.5 27.4 0.00 1.37 1.04 78 1007.6
20260509163014 16 57 11.3 24.1 0.00 1.37 1.04 80 1007.6
20260509162505 15 73 9.7 29.0 0.00 1.37 1.04 82 1007.6
20260509162003 15 76 14.5 29.0 0.00 1.37 1.04 81 1007.7
20260509161509 15 63 14.5 33.8 0.00 1.37 1.04 82 1007.7
20260509161005 15 68 14.5 33.8 0.00 1.37 1.04 82 1007.8
20260509160503 15 58 17.7 27.4 0.00 1.37 1.04 82 1007.8
20260509160012 15 121 16.1 27.4 0.00 1.37 1.04 84 1007.7
20260509155502 15 83 16.1 25.7 0.00 1.37 1.04 84 1007.7
20260509155004 14 34 11.3 24.1 0.00 1.37 1.04 87 1007.7
20260509154516 14 88 12.9 24.1 0.00 1.37 1.04 87 1007.8
20260509154003 13 35 14.5 22.5 0.00 1.37 1.04 87 1007.8
20260509153504 13 42 9.7 22.5 0.00 1.37 1.04 87 1007.8
20260509153017 13 92 9.7 19.3 0.00 1.37 1.04 90 1007.7
20260509152504 13 67 8.0 19.3 0.00 1.37 1.04 91 1007.8
20260509152004 12 61 8.0 19.3 0.00 1.37 1.04 90 1007.7
20260509151514 12 80 6.4 19.3 0.00 1.37 1.04 91 1007.6
20260509151003 12 90 8.0 25.7 0.00 1.37 1.04 91 1007.5
20260509150507 12 69 9.7 25.7 0.00 1.37 1.04 91 1007.4
20260509150013 12 71 6.4 16.1 0.00 1.37 1.04 91 1007.5
20260509145503 12 66 8.0 24.1 0.00 1.37 1.04 91 1007.4
20260509145003 12 61 8.0 24.1 0.00 1.37 1.04 91 1007.3
20260509144517 12 96 11.3 22.5 0.00 1.37 1.04 93 1007.3
20260509144004 12 84 8.0 22.5 0.00 1.37 1.04 93 1007.4
20260509143504 12 87 9.7 19.3 0.00 1.37 1.04 93 1007.4
20260509143019 12 92 6.4 19.3 0.00 1.37 1.04 93 1007.5
20260509142505 12 92 9.7 19.3 0.00 1.37 1.04 93 1007.5
20260509142008 12 90 11.3 20.9 0.00 1.37 1.04 94 1007.5
20260509141534 12 74 9.7 20.9 0.00 1.37 1.04 94 1007.5
20260509141004 12 72 11.3 24.1 0.00 1.37 1.04 94 1007.4
20260509140504 12 88 16.1 24.1 0.00 1.37 1.04 95 1007.2
20260509140011 12 53 9.7 22.5 0.00 1.37 1.04 97 1007.1
20260509135506 12 35 9.7 22.5 0.00 1.37 1.04 97 1007.1
20260509135007 11 61 11.3 22.5 0.00 1.37 1.04 97 1007.3
20260509134528 11 73 11.3 19.3 0.00 1.37 1.04 97 1007.4
20260509134006 11 51 8.0 17.7 0.00 1.37 1.04 97 1007.4
20260509133503 11 57 11.3 19.3 0.00 1.37 1.04 97 1007.4
20260509133018 11 44 11.3 19.3 0.00 1.37 1.04 97 1007.5
20260509132505 11 35 11.3 19.3 0.00 1.37 1.04 96 1007.6
20260509132003 11 46 8.0 19.3 0.00 1.37 1.04 96 1007.7
20260509131506 11 69 9.7 19.3 0.00 1.37 1.04 96 1007.7
20260509131003 11 12 8.0 17.7 0.00 1.37 1.04 96 1007.7
20260509130503 10 58 9.7 17.7 0.00 1.37 1.04 96 1007.8
20260509130005 10 53 8.0 17.7 0.00 1.37 1.04 96 1007.8
20260509125508 10 46 8.0 17.7 0.00 1.37 1.04 96 1007.9
20260509125005 10 88 9.7 17.7 0.00 1.37 1.04 96 1007.9
20260509124511 10 60 6.4 16.1 0.00 1.37 1.04 96 1007.9
20260509124002 10 44 9.7 16.1 0.00 1.37 1.04 96 1007.9
20260509123504 10 79 6.4 14.5 0.00 1.37 1.04 96 1007.9
20260509123017 10 55 8.0 16.1 0.00 1.37 1.04 96 1007.7
20260509122506 10 52 6.4 16.1 0.00 1.37 1.04 97 1007.7
20260509122003 10 63 6.4 16.1 0.00 1.37 1.04 97 1007.8
20260509121511 10 69 6.4 16.1 0.00 1.37 1.04 97 1007.9
20260509121005 10 66 4.8 16.1 0.00 1.37 1.04 97 1007.9
20260509120504 10 61 8.0 16.1 0.00 1.37 1.04 96 1007.9
20260509120012 10 34 6.4 17.7 0.00 1.37 1.04 96 1007.9
20260509115503 10 19 6.4 17.7 0.00 1.37 1.04 96 1007.9
20260509115003 10 40 8.0 16.1 0.00 1.37 1.04 96 1008.0
20260509114506 10 5 6.4 14.5 0.00 1.37 1.04 97 1008.0
20260509114004 10 46 4.8 16.1 0.00 1.37 1.04 96 1008.0
20260509113504 10 40 6.4 16.1 0.00 1.37 1.04 96 1007.9
20260509113012 10 34 6.4 14.5 0.00 1.37 1.04 97 1007.8
20260509112504 10 5 4.8 12.9 0.00 1.37 1.04 96 1007.9
20260509112008 10 360 4.8 12.9 0.00 1.37 1.04 96 1007.9
20260509111514 10 38 3.2 11.3 0.00 1.37 1.04 96 1007.9
20260509111003 10 72 4.8 8.0 0.00 1.37 1.04 96 1007.8
20260509110505 10 44 3.2 9.7 0.00 1.37 1.04 96 1007.7
20260509110015 10 26 4.8 9.7 0.00 1.37 1.04 96 1007.6
20260509105510 10 44 3.2 9.7 0.00 1.37 1.04 96 1007.6
20260509105004 10 5 3.2 9.7 0.00 1.37 1.04 96 1007.5
20260509104514 10 53 4.8 9.7 0.00 1.40 1.04 96 1007.5
20260509104004 10 36 4.8 9.7 0.00 1.40 1.04 96 1007.5
20260509103503 10 36 1.6 9.7 0.00 1.40 1.04 96 1007.5
20260509103006 10 37 3.2 11.3 0.03 1.40 1.04 96 1007.5
20260509102502 10 17 4.8 12.9 0.03 1.40 1.04 96 1007.4
20260509102006 10 12 4.8 12.9 0.03 1.40 1.04 96 1007.4
20260509101513 10 52 4.8 12.9 0.03 1.40 1.04 96 1007.5
20260509101005 10 56 3.2 8.0 0.03 1.40 1.04 96 1007.5
20260509100506 10 58 4.8 14.5 0.05 1.40 1.04 96 1007.5
20260509100019 10 5 4.8 14.5 0.05 1.40 1.04 96 1007.5
20260509095505 10 44 3.2 12.9 0.08 1.40 1.04 96 1007.6
20260509095006 10 46 4.8 12.9 0.10 1.40 1.04 96 1007.7
20260509094529 10 42 3.2 12.9 0.10 1.40 1.04 96 1007.7
20260509094007 10 34 4.8 9.7 0.10 1.40 1.04 96 1007.7